Location: Newark
(51.3000°N, 178.2000°W)
Time: 02:32:37
(UTC+00:00)

ISS - Pass Details

Date: 18 May 2021
Orbit: 417 x 422 km, 51.6° (Epoch: 15 June)

Event Time Altitude Azimuth Distance (km) Brightness Sun altitude
Rises 10:02:54 0° 261° (W) 2,364 0.3 -15.3°
Reaches altitude 10° 10:04:59 10° 262° (W) 1,502 -0.7 -15.5°
Maximum altitude 10:08:22 89° 350° (N) 426 -3.8 -15.7°
Drops below altitude 10° 10:11:45 10° 82° (E) 1,507 -1.1 -15.9°
Enters shadow 10:12:54 - 83° (E) 1,974 -0.5 -16.0°
